,,Stat5,,Stat1,,Stat2,,Stat3,,Stat4,,Wind1,,Wind1,
time,status,PA1M_AVG,status,PR1M_SUM,status,RH1M_AVG,status,SR1M_AVG,status,TA1M_AVG,status,W1dAve1m,status,W1sAve1m,
2002-10-04, 00:00:00,VALID,917.39,VALID,0,VALID,98.9995,VALID,-0.0169808,VALID,19.7725,VALID,56,VALID,0.908318,
2002-10-04, 00:01:00,VALID,917.39,VALID,0,VALID,98.9855,VALID,-0.0339617,VALID,19.7596,VALID,27,VALID,0.69391,
2002-10-04, 00:02:00,VALID,917.397,VALID,0,VALID,99.0059,VALID,-0.0169808,VALID,19.7566,VALID,294,VALID,0.609375,
2002-10-04, 00:03:00,VALID,917.405,VALID,0,VALID,99.0593,VALID,-0.0169808,VALID,19.7728,VALID,132,VALID,0.313939,
2002-10-04, 00:04:00,VALID,917.42,VALID,0,VALID,99.0733,VALID,-0.0169808,VALID,19.7854,VALID,69,VALID,0.206055,
2002-10-04, 00:05:00,VALID,917.411,VALID,0,VALID,99.1089,VALID,-0.0849042,VALID,19.8212,VALID,16,VALID,0.480664,
2002-10-04, 00:06:00,VALID,917.395,VALID,0,VALID,99.1063,VALID,-0.0169808,VALID,19.8043,VALID,352,VALID,0.190705,
2002-10-04, 00:07:00,VALID,917.374,VALID,0,VALID,99.1178,VALID,-0.0849042,VALID,19.8183,VALID,360,VALID,0.051098,
2002-10-04, 00:08:00,VALID,917.349,VALID,0,VALID,99.1203,VALID,-0.0679233,VALID,19.811,VALID,13,VALID,0.0348558,
2002-10-04, 00:09:00,VALID,917.341,VALID,0,VALID,99.1292,VALID,-0.0339617,VALID,19.8242,VALID,13,VALID,0,
2002-10-04, 00:10:00,VALID,917.329,VALID,0,VALID,99.1445,VALID,-0.0339617,VALID,19.8471,VALID,13,VALID,0,
2002-10-04, 00:11:00,VALID,917.317,VALID,0,VALID,99.1572,VALID,-0.0509425,VALID,19.8431,VALID,18,VALID,0.196289,
2002-10-04, 00:12:00,VALID,917.297,VALID,0,VALID,99.1635,VALID,-0.0509425,VALID,19.8533,VALID,28,VALID,0.240132,
2002-10-04, 00:13:00,VALID,917.286,VALID,0,VALID,99.1686,VALID,-0.0509425,VALID,19.8697,VALID,28,VALID,0.264291,
2002-10-04, 00:14:00,VALID,917.257,VALID,0,VALID,99.1496,VALID,-0.0509425,VALID,19.8697,VALID,36,VALID,0.316301,
2002-10-04, 00:15:00,VALID,917.24,VALID,0,VALID,99.1368,VALID,-0.0849042,VALID,19.8463,VALID,78,VALID,0.562901,
2002-10-04, 00:16:00,VALID,917.2,VALID,0,VALID,99.1139,VALID,0,VALID,19.8272,VALID,153,VALID,0.814596,
2002-10-04, 00:17:00,VALID,917.165,VALID,0,VALID,99.1203,VALID,-0.0169808,VALID,19.8212,VALID,153,VALID,0.747327,
2002-10-04, 00:18:00,VALID,917.122,VALID,0,VALID,99.0961,VALID,-0.0339617,VALID,19.7852,VALID,155,VALID,1.07292,
2002-10-04, 00:19:00,VALID,917.094,VALID,0,VALID,99.0987,VALID,-0.0509425,VALID,19.769,VALID,148,VALID,1.15024,
2002-10-04, 00:20:00,VALID,917.057,VALID,0,VALID,99.0936,VALID,-0.0679233,VALID,19.7564,VALID,142,VALID,1.08594,
2002-10-04, 00:21:00,VALID,917.033,VALID,0,VALID,99.1063,VALID,-0.0509425,VALID,19.7502,VALID,145,VALID,1.00117,
2002-10-04, 00:22:00,VALID,917.003,VALID,0,VALID,99.1127,VALID,-0.0169808,VALID,19.7241,VALID,145,VALID,1.36758,
2002-10-04, 00:23:00,VALID,916.974,VALID,0,VALID,99.1203,VALID,-0.0509425,VALID,19.7109,VALID,151,VALID,1.03087,
2002-10-04, 00:24:00,VALID,916.944,VALID,0,VALID,99.1343,VALID,-0.0509425,VALID,19.7047,VALID,143,VALID,1.2221,
2002-10-04, 00:25:00,VALID,916.926,VALID,0,VALID,99.1343,VALID,-0.0509425,VALID,19.6885,VALID,143,VALID,0.640625,
2002-10-04, 00:26:00,VALID,916.921,VALID,0,VALID,99.1356,VALID,-0.0339617,VALID,19.6885,VALID,126,VALID,0.426098,
2002-10-04, 00:27:00,VALID,916.924,VALID,0,VALID,99.147,VALID,-0.0509425,VALID,19.6759,VALID,126,VALID,0.246199,
2002-10-04, 00:28:00,VALID,916.908,VALID,0,VALID,99.1521,VALID,-0.0339617,VALID,19.6694,VALID,50,VALID,0.331364,
2002-10-04, 00:29:00,VALID,916.879,VALID,0,VALID,99.1597,VALID,-0.0339617,VALID,19.6565,VALID,82,VALID,0.483553,
2002-10-04, 00:30:00,VALID,916.861,VALID,0,VALID,99.1406,VALID,-0.0849042,VALID,19.6341,VALID,103,VALID,0.73117,
2002-10-04, 00:31:00,VALID,916.832,VALID,0,VALID,99.1368,VALID,-0.0509425,VALID,19.6177,VALID,121,VALID,0.646484,
2002-10-04, 00:32:00,VALID,916.808,VALID,0,VALID,99.1406,VALID,-0.0509425,VALID,19.5954,VALID,131,VALID,0.265625,
2002-10-04, 00:33:00,VALID,916.792,VALID,0,VALID,99.1546,VALID,0.0339617,VALID,19.5837,VALID,102,VALID,0.600477,
2002-10-04, 00:34:00,VALID,916.756,VALID,0,VALID,99.1623,VALID,0.0169808,VALID,19.5648,VALID,101,VALID,0.810897,
2002-10-04, 00:35:00,VALID,916.743,VALID,0,VALID,99.1712,VALID,0.0169808,VALID,19.5643,VALID,92,VALID,0.497266,
2002-10-04, 00:36:00,VALID,916.717,VALID,0,VALID,99.1635,VALID,0.0339617,VALID,19.542,VALID,116,VALID,0.888281,
2002-10-04, 00:37:00,VALID,916.693,VALID,0,VALID,99.189,VALID,0.0339617,VALID,19.5353,VALID,142,VALID,0.707732,
2002-10-04, 00:38:00,VALID,916.66,VALID,0,VALID,99.2169,VALID,0.0339617,VALID,19.542,VALID,140,VALID,0.673775,
2002-10-04, 00:39:00,VALID,916.662,VALID,0,VALID,99.2411,VALID,0.0679233,VALID,19.5584,VALID,123,VALID,0.552344,
2002-10-04, 00:40:00,VALID,916.662,VALID,0,VALID,99.2525,VALID,0.0169808,VALID,19.5613,VALID,119,VALID,0.31543,
2002-10-04, 00:41:00,VALID,916.688,VALID,0,VALID,99.2411,VALID,0.0679233,VALID,19.5678,VALID,97,VALID,0.65076,
2002-10-04, 00:42:00,VALID,916.709,VALID,0,VALID,99.2386,VALID,0.0509425,VALID,19.5715,VALID,92,VALID,0.56108,
2002-10-04, 00:43:00,VALID,916.749,VALID,0,VALID,99.2284,VALID,0.0169808,VALID,19.5382,VALID,90,VALID,0.502003,
2002-10-04, 00:44:00,VALID,916.762,VALID,0,VALID,99.2475,VALID,0.0339617,VALID,19.5551,VALID,86,VALID,0.658854,
2002-10-04, 00:45:00,VALID,916.774,VALID,0,VALID,99.2462,VALID,0.0849042,VALID,19.5487,VALID,126,VALID,1.19199,
2002-10-04, 00:46:00,VALID,916.771,VALID,0,VALID,99.2424,VALID,0.0339617,VALID,19.5589,VALID,110,VALID,0.975962,
2002-10-04, 00:47:00,VALID,916.772,VALID,0,VALID,99.2551,VALID,0.0339617,VALID,19.5487,VALID,120,VALID,0.645008,
2002-10-04, 00:48:00,VALID,916.763,VALID,0,VALID,99.2589,VALID,0,VALID,19.5524,VALID,135,VALID,0.596917,
2002-10-04, 00:49:00,VALID,916.747,VALID,0,VALID,99.2589,VALID,0.0339617,VALID,19.5554,VALID,140,VALID,0.98738,
2002-10-04, 00:50:00,VALID,916.726,VALID,0,VALID,99.2691,VALID,0.0339617,VALID,19.5387,VALID,138,VALID,1.19316,
2002-10-04, 00:51:00,VALID,916.709,VALID,0,VALID,99.2576,VALID,0.0339617,VALID,19.5293,VALID,151,VALID,0.922066,
2002-10-04, 00:52:00,VALID,916.715,VALID,0,VALID,99.264,VALID,0.0679233,VALID,19.5194,VALID,142,VALID,0.610709,
2002-10-04, 00:53:00,VALID,916.746,VALID,0,VALID,99.2678,VALID,0.0679233,VALID,19.5362,VALID,160,VALID,0.877323,
2002-10-04, 00:54:00,VALID,916.781,VALID,0,VALID,99.2704,VALID,0.0509425,VALID,19.5233,VALID,158,VALID,0.552455,
2002-10-04, 00:55:00,VALID,916.804,VALID,0,VALID,99.2742,VALID,0.0169808,VALID,19.5062,VALID,163,VALID,0.0561756,
2002-10-04, 00:56:00,VALID,916.815,VALID,0,VALID,99.2818,VALID,0.0339617,VALID,19.5027,VALID,163,VALID,0,
2002-10-04, 00:57:00,VALID,916.818,VALID,0,VALID,99.2754,VALID,0.0169808,VALID,19.5067,VALID,163,VALID,0,
2002-10-04, 00:58:00,VALID,916.81,VALID,0,VALID,99.2805,VALID,0.0169808,VALID,19.5198,VALID,166,VALID,0.131027,
2002-10-04, 00:59:00,VALID,916.812,VALID,0,VALID,99.2996,VALID,0.0509425,VALID,19.5261,VALID,173,VALID,0.194444,
2002-10-04, 01:00:00,VALID,916.809,VALID,0,VALID,99.3149,VALID,0.0339617,VALID,19.5323,VALID,170,VALID,0.179018,
2002-10-04, 01:01:00,VALID,916.802,VALID,0,VALID,99.3123,VALID,0.0169808,VALID,19.5521,VALID,169,VALID,0.208265,
2002-10-04, 01:02:00,VALID,916.782,VALID,0,VALID,99.3161,VALID,0.0169808,VALID,19.542,VALID,147,VALID,0.908512,
2002-10-04, 01:03:00,VALID,916.776,VALID,0,VALID,99.3047,VALID,-0.0679233,VALID,19.5499,VALID,89,VALID,0.741776,
2002-10-04, 01:04:00,VALID,916.757,VALID,0,VALID,99.292,VALID,-0.101885,VALID,19.5273,VALID,136,VALID,0.840461,
2002-10-04, 01:05:00,VALID,916.732,VALID,0,VALID,99.2907,VALID,-0.0679233,VALID,19.5342,VALID,110,VALID,1.15789,
2002-10-04, 01:06:00,VALID,916.697,VALID,0,VALID,99.3123,VALID,-0.0679233,VALID,19.5308,VALID,117,VALID,0.514648,
2002-10-04, 01:07:00,VALID,916.672,VALID,0,VALID,99.3009,VALID,0,VALID,19.5305,VALID,130,VALID,0.519072,
2002-10-04, 01:08:00,VALID,916.647,VALID,0,VALID,99.2958,VALID,0.0339617,VALID,19.5164,VALID,128,VALID,0.983774,
2002-10-04, 01:09:00,VALID,916.629,VALID,0,VALID,99.3072,VALID,0.0339617,VALID,19.5136,VALID,138,VALID,1.19411,
2002-10-04, 01:10:00,VALID,916.609,VALID,0,VALID,99.306,VALID,0.0339617,VALID,19.5099,VALID,142,VALID,1.79174,
2002-10-04, 01:11:00,VALID,916.596,VALID,0,VALID,99.3034,VALID,0.0849042,VALID,19.5,VALID,146,VALID,2.29087,
2002-10-04, 01:12:00,VALID,916.588,VALID,0,VALID,99.3123,VALID,0.0169808,VALID,19.5069,VALID,139,VALID,1.78146,
2002-10-04, 01:13:00,VALID,916.578,VALID,0,VALID,99.3123,VALID,0.0679233,VALID,19.4938,VALID,141,VALID,1.8131,
2002-10-04, 01:14:00,VALID,916.579,VALID,0,VALID,99.311,VALID,0.0339617,VALID,19.4943,VALID,145,VALID,1.78163,
2002-10-04, 01:15:00,VALID,916.576,VALID,0,VALID,99.311,VALID,0.0509425,VALID,19.4771,VALID,141,VALID,1.57572,
2002-10-04, 01:16:00,VALID,916.57,VALID,0,VALID,99.3161,VALID,0.0339617,VALID,19.4744,VALID,138,VALID,1.43474,
2002-10-04, 01:17:00,VALID,916.562,VALID,0,VALID,99.3225,VALID,0.0509425,VALID,19.4666,VALID,138,VALID,1.21675,
2002-10-04, 01:18:00,VALID,916.562,VALID,0,VALID,99.3161,VALID,0.0509425,VALID,19.4682,VALID,137,VALID,1.15287,
2002-10-04, 01:19:00,VALID,916.556,VALID,0,VALID,99.3149,VALID,0.0509425,VALID,19.4585,VALID,141,VALID,1.17754,
2002-10-04, 01:20:00,VALID,916.549,VALID,0,VALID,99.3238,VALID,0.0509425,VALID,19.4515,VALID,140,VALID,1.14864,
2002-10-04, 01:21:00,VALID,916.539,VALID,0,VALID,99.3288,VALID,0.0169808,VALID,19.455,VALID,141,VALID,1.3064,
2002-10-04, 01:22:00,VALID,916.561,VALID,0,VALID,99.325,VALID,0.0679233,VALID,19.4582,VALID,120,VALID,1.30321,
2002-10-04, 01:23:00,VALID,916.563,VALID,0,VALID,99.3199,VALID,0.0169808,VALID,19.4553,VALID,122,VALID,0.964143,
2002-10-04, 01:24:00,VALID,916.557,VALID,0,VALID,99.3199,VALID,0.0169808,VALID,19.4359,VALID,143,VALID,1.33422,
2002-10-04, 01:25:00,VALID,916.559,VALID,0,VALID,99.3263,VALID,0,VALID,19.4396,VALID,140,VALID,1.0074,
2002-10-04, 01:26:00,VALID,916.538,VALID,0,VALID,99.3098,VALID,0.0169808,VALID,19.4394,VALID,134,VALID,1.05869,
2002-10-04, 01:27:00,VALID,916.525,VALID,0,VALID,99.3174,VALID,0.0339617,VALID,19.4267,VALID,130,VALID,0.91266,
2002-10-04, 01:28:00,VALID,916.501,VALID,0,VALID,99.311,VALID,0,VALID,19.4135,VALID,136,VALID,1.34896,
2002-10-04, 01:29:00,VALID,916.483,VALID,0,VALID,99.3187,VALID,0.0169808,VALID,19.4205,VALID,146,VALID,1.17266,
2002-10-04, 01:30:00,VALID,916.455,VALID,0,VALID,99.3161,VALID,0.0169808,VALID,19.4197,VALID,137,VALID,1.19492,
2002-10-04, 01:31:00,VALID,916.437,VALID,0,VALID,99.3365,VALID,-0.0169808,VALID,19.4103,VALID,142,VALID,1.78506,
2002-10-04, 01:32:00,VALID,916.45,VALID,0,VALID,99.3327,VALID,0,VALID,19.4237,VALID,143,VALID,1.20424,
2002-10-04, 01:33:00,VALID,916.457,VALID,0,VALID,99.3377,VALID,0,VALID,19.4071,VALID,143,VALID,1.80469,
2002-10-04, 01:34:00,VALID,916.466,VALID,0,VALID,99.3365,VALID,0.0169808,VALID,19.4167,VALID,147,VALID,1.77576,
2002-10-04, 01:35:00,VALID,916.481,VALID,0,VALID,99.3492,VALID,0,VALID,19.4068,VALID,170,VALID,1.34438,
2002-10-04, 01:36:00,VALID,916.481,VALID,0,VALID,99.3403,VALID,0,VALID,19.4299,VALID,140,VALID,1.66425,
2002-10-04, 01:37:00,VALID,916.495,VALID,0,VALID,99.3594,VALID,0,VALID,19.4234,VALID,168,VALID,1.29091,
2002-10-04, 01:38:00,VALID,916.494,VALID,0,VALID,99.3543,VALID,0,VALID,19.4133,VALID,168,VALID,1.26082,
2002-10-04, 01:39:00,VALID,916.504,VALID,0,VALID,99.3683,VALID,0.0169808,VALID,19.4165,VALID,158,VALID,1.25347,
2002-10-04, 01:40:00,VALID,916.498,VALID,0,VALID,99.3632,VALID,0.0679233,VALID,19.4232,VALID,165,VALID,0.966211,
2002-10-04, 01:41:00,VALID,916.507,VALID,0,VALID,99.3695,VALID,0,VALID,19.4297,VALID,158,VALID,1.45009,
2002-10-04, 01:42:00,VALID,916.503,VALID,0,VALID,99.367,VALID,0.0169808,VALID,19.4133,VALID,169,VALID,1.3752,
2002-10-04, 01:43:00,VALID,916.506,VALID,0,VALID,99.3772,VALID,0.0169808,VALID,19.4001,VALID,167,VALID,1.1084,
2002-10-04, 01:44:00,VALID,916.503,VALID,0,VALID,99.3734,VALID,0,VALID,19.42,VALID,176,VALID,0.852344,
2002-10-04, 01:45:00,VALID,916.496,VALID,0,VALID,99.3835,VALID,0.0339617,VALID,19.4103,VALID,161,VALID,1.29487,
2002-10-04, 01:46:00,VALID,916.471,VALID,0,VALID,99.3708,VALID,0,VALID,19.3939,VALID,165,VALID,1.27597,
2002-10-04, 01:47:00,VALID,916.46,VALID,0,VALID,99.3695,VALID,0.0339617,VALID,19.3842,VALID,165,VALID,0.832812,
2002-10-04, 01:48:00,VALID,916.454,VALID,0,VALID,99.3657,VALID,0,VALID,19.378,VALID,166,VALID,0.724805,
2002-10-04, 01:49:00,VALID,916.455,VALID,0,VALID,99.367,VALID,0.0339617,VALID,19.3584,VALID,173,VALID,0.384502,
2002-10-04, 01:50:00,VALID,916.442,VALID,0,VALID,99.3721,VALID,0.0169808,VALID,19.3524,VALID,155,VALID,0.770597,
2002-10-04, 01:51:00,VALID,916.439,VALID,0,VALID,99.3708,VALID,0,VALID,19.3367,VALID,136,VALID,1.03405,
2002-10-04, 01:52:00,VALID,916.44,VALID,0,VALID,99.3644,VALID,0.0169808,VALID,19.3295,VALID,91,VALID,0.479567,
2002-10-04, 01:53:00,VALID,916.432,VALID,0,VALID,99.3619,VALID,0,VALID,19.3169,VALID,123,VALID,0.246289,
2002-10-04, 01:54:00,VALID,916.423,VALID,0,VALID,99.3606,VALID,0.0509425,VALID,19.2873,VALID,91,VALID,0.463542,
2002-10-04, 01:55:00,VALID,916.423,VALID,0,VALID,99.367,VALID,0.0509425,VALID,19.2843,VALID,104,VALID,0.602515,
2002-10-04, 01:56:00,VALID,916.406,VALID,0,VALID,99.3683,VALID,0.0509425,VALID,19.2714,VALID,137,VALID,0.248311,
2002-10-04, 01:57:00,VALID,916.393,VALID,0,VALID,99.3772,VALID,0.0339617,VALID,19.2456,VALID,134,VALID,0.453125,
2002-10-04, 01:58:00,VALID,916.375,VALID,0,VALID,99.381,VALID,0.0509425,VALID,19.2617,VALID,145,VALID,0.568555,
2002-10-04, 01:59:00,VALID,916.362,VALID,0,VALID,99.3937,VALID,0.0169808,VALID,19.2647,VALID,149,VALID,0.254764,
2002-10-04, 02:00:00,VALID,916.35,VALID,0,VALID,99.3886,VALID,0.0169808,VALID,19.255,VALID,161,VALID,0.290015,
2002-10-04, 02:01:00,VALID,916.352,VALID,0,VALID,99.3886,VALID,0.0169808,VALID,19.249,VALID,149,VALID,0.493243,
2002-10-04, 02:02:01,VALID,916.342,VALID,0,VALID,99.3975,VALID,0,VALID,19.2525,VALID,150,VALID,0.151414,
2002-10-04, 02:03:00,VALID,916.347,VALID,0,VALID,99.3721,VALID,0.0169808,VALID,19.226,VALID,150,VALID,0.00985863,
2002-10-04, 02:04:00,VALID,916.356,VALID,0,VALID,99.3746,VALID,0.0169808,VALID,19.2237,VALID,150,VALID,0.0147804,
2002-10-04, 02:05:00,VALID,916.357,VALID,0,VALID,99.367,VALID,0,VALID,19.2075,VALID,138,VALID,0.0785156,
2002-10-04, 02:06:00,VALID,916.355,VALID,0,VALID,99.367,VALID,0.0169808,VALID,19.1944,VALID,129,VALID,0.240848,
2002-10-04, 02:07:00,VALID,916.331,VALID,0,VALID,99.3772,VALID,0.0509425,VALID,19.1907,VALID,147,VALID,0.200955,
2002-10-04, 02:08:00,VALID,916.304,VALID,0,VALID,99.3695,VALID,0.0169808,VALID,19.1944,VALID,117,VALID,0.196652,
2002-10-04, 02:09:00,VALID,916.311,VALID,0,VALID,99.3683,VALID,0,VALID,19.1653,VALID,72,VALID,0.422903,
2002-10-04, 02:10:00,VALID,916.298,VALID,0,VALID,99.3797,VALID,0.0339617,VALID,19.1385,VALID,103,VALID,1.14145,
2002-10-04, 02:11:00,VALID,916.281,VALID,0,VALID,99.3797,VALID,0.0169808,VALID,19.1482,VALID,111,VALID,1.15687,
2002-10-04, 02:12:00,VALID,916.281,VALID,0,VALID,99.4026,VALID,0.0339617,VALID,19.1646,VALID,129,VALID,1.31908,
2002-10-04, 02:13:01,VALID,916.262,VALID,0,VALID,99.4166,VALID,0.0169808,VALID,19.1912,VALID,141,VALID,1.39063,
2002-10-04, 02:14:01,VALID,916.231,VALID,0,VALID,99.4268,VALID,0.0169808,VALID,19.2004,VALID,124,VALID,1.26563,
2002-10-04, 02:15:00,VALID,916.211,VALID,0,VALID,99.4268,VALID,0.0339617,VALID,19.217,VALID,135,VALID,0.892693,
2002-10-04, 02:16:01,VALID,916.176,VALID,0,VALID,99.4268,VALID,0,VALID,19.2262,VALID,114,VALID,0.969151,
2002-10-04, 02:17:00,VALID,916.155,VALID,0,VALID,99.4229,VALID,0.0169808,VALID,19.2396,VALID,108,VALID,0.77504,
2002-10-04, 02:18:00,VALID,916.138,VALID,0,VALID,99.4191,VALID,0.0169808,VALID,19.2398,VALID,59,VALID,0.829564,
2002-10-04, 02:19:01,VALID,916.114,VALID,0,VALID,99.4026,VALID,0,VALID,19.2105,VALID,68,VALID,0.805889,
2002-10-04, 02:20:00,VALID,916.089,VALID,0,VALID,99.3912,VALID,-0.0169808,VALID,19.1941,VALID,60,VALID,0.91653,
2002-10-04, 02:21:00,VALID,916.046,VALID,0,VALID,99.3835,VALID,-0.0169808,VALID,19.1916,VALID,65,VALID,0.608574,
2002-10-04, 02:22:00,VALID,916.016,VALID,0,VALID,99.3823,VALID,0,VALID,19.1623,VALID,71,VALID,0.765244,
2002-10-04, 02:23:00,VALID,916,VALID,0,VALID,99.3772,VALID,0,VALID,19.1591,VALID,95,VALID,0.782252,
2002-10-04, 02:24:00,VALID,916.011,VALID,0,VALID,99.3861,VALID,-0.0169808,VALID,19.1752,VALID,79,VALID,0.898208,
2002-10-04, 02:25:01,VALID,916.029,VALID,0,VALID,99.3784,VALID,0,VALID,19.1623,VALID,81,VALID,1.1627,
2002-10-04, 02:26:00,VALID,916.058,VALID,0,VALID,99.367,VALID,-0.0339617,VALID,19.1559,VALID,126,VALID,1.05046,
2002-10-04, 02:27:00,VALID,916.09,VALID,0,VALID,99.3772,VALID,0,VALID,19.1685,VALID,145,VALID,1.0334,
2002-10-04, 02:28:00,VALID,916.112,VALID,0,VALID,99.3746,VALID,-0.0169808,VALID,19.1842,VALID,144,VALID,0.816406,
2002-10-04, 02:29:01,VALID,916.13,VALID,0,VALID,99.381,VALID,0,VALID,19.2207,VALID,139,VALID,1.21856,
2002-10-04, 02:30:00,VALID,916.156,VALID,0,VALID,99.3644,VALID,0,VALID,19.2264,VALID,141,VALID,1.33003,
2002-10-04, 02:31:01,VALID,916.16,VALID,0,VALID,99.3403,VALID,0.0169808,VALID,19.2364,VALID,144,VALID,1.29567,
2002-10-04, 02:32:00,VALID,916.156,VALID,0,VALID,99.3263,VALID,0,VALID,19.2461,VALID,151,VALID,1.42054,
2002-10-04, 02:33:01,VALID,916.158,VALID,0,VALID,99.3123,VALID,0,VALID,19.2396,VALID,151,VALID,1.32504,
2002-10-04, 02:34:00,VALID,916.167,VALID,0,VALID,99.2945,VALID,0,VALID,19.2493,VALID,141,VALID,1.19091,
2002-10-04, 02:35:00,VALID,916.174,VALID,0,VALID,99.264,VALID,0,VALID,19.2267,VALID,120,VALID,0.771034,
2002-10-04, 02:36:00,VALID,916.178,VALID,0,VALID,99.2437,VALID,0.0169808,VALID,19.2205,VALID,125,VALID,0.420072,
2002-10-04, 02:37:00,VALID,916.19,VALID,0,VALID,99.236,VALID,0,VALID,19.1912,VALID,142,VALID,0.2,
2002-10-04, 02:38:00,VALID,916.198,VALID,0,VALID,99.2169,VALID,0,VALID,19.1819,VALID,141,VALID,0.00195313,
2002-10-04, 02:39:00,VALID,916.188,VALID,0,VALID,99.2144,VALID,0,VALID,19.1785,VALID,219,VALID,0.363377,
2002-10-04, 02:40:00,VALID,916.196,VALID,0,VALID,99.1852,VALID,0,VALID,19.1459,VALID,222,VALID,0.481027,
2002-10-04, 02:41:00,VALID,916.204,VALID,0,VALID,99.1699,VALID,0,VALID,19.1164,VALID,233,VALID,0.809544,
2002-10-04, 02:42:00,VALID,916.217,VALID,0,VALID,99.1597,VALID,0,VALID,19.104,VALID,227,VALID,0.859375,
2002-10-04, 02:43:00,VALID,916.23,VALID,0,VALID,99.1699,VALID,0.0169808,VALID,19.1169,VALID,244,VALID,0.805532,
2002-10-04, 02:44:00,VALID,916.247,VALID,0,VALID,99.1775,VALID,0.0169808,VALID,19.1231,VALID,231,VALID,0.258003,
2002-10-04, 02:45:00,VALID,916.244,VALID,0,VALID,99.1801,VALID,0.0169808,VALID,19.0973,VALID,200,VALID,0.0333059,
2002-10-04, 02:46:01,VALID,916.227,VALID,0,VALID,99.1648,VALID,0,VALID,19.0811,VALID,200,VALID,0,
2002-10-04, 02:47:00,VALID,916.193,VALID,0,VALID,99.1381,VALID,0,VALID,19.052,VALID,200,VALID,0,
2002-10-04, 02:48:00,VALID,916.172,VALID,0,VALID,99.133,VALID,0,VALID,19.0428,VALID,200,VALID,0,
2002-10-04, 02:49:00,VALID,916.168,VALID,0,VALID,99.1089,VALID,0,VALID,19.0105,VALID,160,VALID,0.254557,
2002-10-04, 02:50:00,VALID,916.144,VALID,0,VALID,99.1127,VALID,0,VALID,18.9907,VALID,107,VALID,0.416466,
2002-10-04, 02:51:00,VALID,916.126,VALID,0,VALID,99.1508,VALID,0,VALID,18.9944,VALID,97,VALID,0.778125,
2002-10-04, 02:52:00,VALID,916.12,VALID,0,VALID,99.1991,VALID,0,VALID,19.0366,VALID,93,VALID,1.3084,
2002-10-04, 02:53:00,VALID,916.119,VALID,0,VALID,99.2042,VALID,0.0169808,VALID,19.0851,VALID,101,VALID,1.23237,
2002-10-04, 02:54:00,VALID,916.116,VALID,0,VALID,99.1712,VALID,-0.0169808,VALID,19.1241,VALID,105,VALID,0.90984,
2002-10-04, 02:55:00,VALID,916.123,VALID,0,VALID,99.0974,VALID,0,VALID,19.1725,VALID,102,VALID,0.775586,
2002-10-04, 02:56:00,VALID,916.127,VALID,0,VALID,99.0033,VALID,-0.0169808,VALID,19.1919,VALID,104,VALID,0.809766,
2002-10-04, 02:57:01,VALID,916.13,VALID,0,VALID,98.9321,VALID,0,VALID,19.2113,VALID,98,VALID,0.531672,
2002-10-04, 02:58:01,VALID,916.151,VALID,0,VALID,98.7884,VALID,0,VALID,19.2142,VALID,128,VALID,0.598958,
2002-10-04, 02:59:00,VALID,916.15,VALID,0,VALID,98.7223,VALID,-0.0169808,VALID,19.2016,VALID,113,VALID,0.673277,
2002-10-04, 03:00:01,VALID,916.163,VALID,0,VALID,98.6892,VALID,-0.0509425,VALID,19.2048,VALID,133,VALID,0.717548,
2002-10-04, 03:01:01,VALID,916.168,VALID,0,VALID,98.6396,VALID,0,VALID,19.1916,VALID,131,VALID,0.464453,
2002-10-04, 03:02:00,VALID,916.163,VALID,0,VALID,98.5875,VALID,0,VALID,19.1824,VALID,151,VALID,0.98758,
2002-10-04, 03:03:00,VALID,916.177,VALID,0,VALID,98.5417,VALID,0.0679233,VALID,19.1581,VALID,152,VALID,0.550114,
2002-10-04, 03:04:00,VALID,916.18,VALID,0,VALID,98.5379,VALID,0.101885,VALID,19.1221,VALID,153,VALID,0.532517,
2002-10-04, 03:05:00,VALID,916.174,VALID,0,VALID,98.5265,VALID,0.101885,VALID,19.1028,VALID,175,VALID,0.527444,
2002-10-04, 03:06:00,VALID,916.182,VALID,0,VALID,98.5837,VALID,0.101885,VALID,19.0871,VALID,165,VALID,0.306055,
2002-10-04, 03:07:00,VALID,916.176,VALID,0,VALID,98.6167,VALID,0.0849042,VALID,19.0744,VALID,170,VALID,0.0832698,
2002-10-04, 03:08:01,VALID,916.18,VALID,0,VALID,98.6244,VALID,0.0849042,VALID,19.0613,VALID,170,VALID,0.0552591,
2002-10-04, 03:09:00,VALID,916.18,VALID,0,VALID,98.5939,VALID,0.101885,VALID,19.0255,VALID,18,VALID,0.877956,
2002-10-04, 03:10:01,VALID,916.196,VALID,0,VALID,98.3764,VALID,0.101885,VALID,18.8829,VALID,20,VALID,0.944741,
2002-10-04, 03:11:01,VALID,916.196,VALID,0,VALID,98.4362,VALID,0.101885,VALID,18.8509,VALID,16,VALID,1.03013,
2002-10-04, 03:12:00,VALID,916.184,VALID,0,VALID,98.7159,VALID,0.0679233,VALID,18.8966,VALID,13,VALID,0.999155,
2002-10-04, 03:13:01,VALID,916.19,VALID,0,VALID,98.8278,VALID,0.0849042,VALID,18.9261,VALID,10,VALID,1.2416,
2002-10-04, 03:14:00,VALID,916.189,VALID,0,VALID,98.8736,VALID,0.0849042,VALID,18.9326,VALID,22,VALID,1.00781,
2002-10-04, 03:15:00,VALID,916.194,VALID,0,VALID,98.8253,VALID,0.0509425,VALID,18.8899,VALID,20,VALID,0.786241,
2002-10-04, 03:16:01,VALID,916.202,VALID,0,VALID,98.8266,VALID,0.101885,VALID,18.8543,VALID,49,VALID,0.625,
2002-10-04, 03:17:00,VALID,916.21,VALID,0,VALID,98.9868,VALID,0.0849042,VALID,18.874,VALID,101,VALID,0.528577,
2002-10-04, 03:18:00,VALID,916.195,VALID,0,VALID,99.1152,VALID,0.0169808,VALID,18.9303,VALID,124,VALID,0.596217,
2002-10-04, 03:19:01,VALID,916.19,VALID,0,VALID,98.9944,VALID,-0.0169808,VALID,18.9303,VALID,149,VALID,0.728002,
2002-10-04, 03:20:00,VALID,916.178,VALID,0,VALID,98.9944,VALID,0,VALID,18.904,VALID,145,VALID,0.91653,
2002-10-04, 03:21:01,VALID,916.167,VALID,0,VALID,99.0237,VALID,0,VALID,18.9102,VALID,142,VALID,0.806332,
2002-10-04, 03:22:01,VALID,916.154,VALID,0,VALID,99.0084,VALID,0.0339617,VALID,18.9107,VALID,149,VALID,0.679102,
2002-10-04, 03:23:00,VALID,916.14,VALID,0,VALID,99.0313,VALID,0.0169808,VALID,18.9236,VALID,156,VALID,1.13074,
2002-10-04, 03:24:01,VALID,916.125,VALID,0,VALID,99.0275,VALID,0,VALID,18.9139,VALID,162,VALID,0.589744,
2002-10-04, 03:25:00,VALID,916.11,VALID,0,VALID,99.0148,VALID,0,VALID,18.9007,VALID,131,VALID,0.701122,
2002-10-04, 03:26:00,VALID,916.117,VALID,0,VALID,98.9525,VALID,0.0169808,VALID,18.8844,VALID,92,VALID,0.47389,
2002-10-04, 03:27:01,VALID,916.121,VALID,0,VALID,98.8787,VALID,0.0169808,VALID,18.8461,VALID,64,VALID,0.952925,
2002-10-04, 03:28:00,VALID,916.137,VALID,0,VALID,98.8189,VALID,0.0169808,VALID,18.7686,VALID,62,VALID,0.977179,
2002-10-04, 03:29:00,VALID,916.143,VALID,0,VALID,98.9753,VALID,0.0339617,VALID,18.7653,VALID,104,VALID,0.918269,
2002-10-04, 03:30:00,VALID,916.123,VALID,0,VALID,99.0287,VALID,0.0169808,VALID,18.785,VALID,132,VALID,0.710747,
2002-10-04, 03:31:00,VALID,916.104,VALID,0,VALID,99.0758,VALID,0.0169808,VALID,18.8004,VALID,110,VALID,0.906851,
2002-10-04, 03:32:01,VALID,916.097,VALID,0,VALID,99.0415,VALID,0.0169808,VALID,18.8073,VALID,91,VALID,0.829044,
2002-10-04, 03:33:01,VALID,916.083,VALID,0,VALID,99.0771,VALID,0,VALID,18.8205,VALID,92,VALID,0.89707,